This is the latest recevied weather packets stored in our database for station/object KB4MOX. If no packets are shown the sender has not sent any weather packets the latest 10 day(s).
| Time | Temp. | Humidity | Pressure | Rain* | Wind** | Luminosity | Snow |
|---|---|---|---|---|---|---|---|
| 1787591452 | 32.78° C | 40% | 1016.4 hPa | 0 mm | - | 781 W/m² | - |
| 1787591149 | 32.78° C | 41% | 1016.4 hPa | 0 mm | - | 776 W/m² | - |
| 1787590845 | 32.78° C | 40% | 1016.5 hPa | 0 mm | - | 769 W/m² | - |
| 1787590539 | 32.22° C | 41% | 1016.4 hPa | 0 mm | - | 760 W/m² | - |
| 1787590234 | 32.22° C | 40% | 1016.5 hPa | 0 mm | - | 751 W/m² | - |
| 1787589929 | 32.22° C | 42% | 1016.3 hPa | 0 mm | - | 758 W/m² | - |
| 1787589626 | 32.22° C | 41% | 1016.5 hPa | 0 mm | - | 748 W/m² | - |
| 1787589325 | 32.22° C | 41% | 1016.5 hPa | 0 mm | - | 741 W/m² | - |
| 1787589021 | 32.22° C | 41% | 1016.6 hPa | 0 mm | - | 738 W/m² | - |
| 1787588717 | 32.22° C | 43% | 1016.6 hPa | 0 mm | - | 724 W/m² | - |
| 1787588413 | 32.22° C | 42% | 1016.7 hPa | 0 mm | - | 715 W/m² | - |
| 1787588108 | 31.67° C | 45% | 1016.8 hPa | 0 mm | - | 712 W/m² | - |
| 1787587803 | 31.67° C | 43% | 1016.9 hPa | 0 mm | - | 694 W/m² | - |
| 1787587503 | 31.67° C | 42% | 1017 hPa | 0 mm | - | 693 W/m² | - |
| 1787587202 | 31.67° C | 43% | 1016.8 hPa | 0 mm | - | 663 W/m² | - |
| 1787586897 | 31.67° C | 43% | 1017.1 hPa | 0 mm | - | 662 W/m² | - |
| 1787586592 | 31.11° C | 43% | 1017 hPa | 0 mm | - | 656 W/m² | - |
| 1787586287 | 31.11° C | 44% | 1017.1 hPa | 0 mm | - | 650 W/m² | - |
| 1787585984 | 30.56° C | 42% | 1017.2 hPa | 0 mm | - | 638 W/m² | - |
| 1787585684 | 30° C | 45% | 1017.2 hPa | 0 mm | - | 632 W/m² | - |
| 1787585384 | 30° C | 44% | 1017.1 hPa | 0 mm | - | 584 W/m² | - |
| 1787585079 | 30° C | 44% | 1017.1 hPa | 0 mm | - | 228 W/m² | - |
| 1787584774 | 30° C | 46% | 1016.8 hPa | 0 mm | - | 191 W/m² | - |
| 1787584472 | 29.44° C | 45% | 1017 hPa | 0 mm | - | 79 W/m² | - |
| 1787584167 | 29.44° C | 45% | 1017.1 hPa | 0 mm | - | 94 W/m² | - |
* Rain latest hour (hover to see other rain measurements)
** Current wind speed in m/s (hover to see current wind gust speed)